[[{"header":{"parameterUnit":"m.s-1","parameterCategory":1,"la1":30.2991,"la2":30.254,"lo1":-89.0895,"lo2":-89.0444,"dy":0.0017,"dx":0.0017,"nx":28,"ny":28,"refTime":"2023-10-07T21:00:00:Z","depth":0,"parameterNumber":2,"parameterNumberName":"U-component_of_WINDS"},"data":[0,0,0,0,0,0,0,0,0,0,0,0,0,0,0,0,0,0,0,0,0,0,0,0,0,0,0,0,0,0,0,0,0,0,0,0,0,0,0,0,0,0,0,0,0,0,0,0,0,0,0,0,0,0,0,0,0,0,-2.9013,-2.9014,0,-2.9087,-2.9088,-2.9089,-2.8939,-2.8934,-2.8929,-2.8924,-2.9003,-2.9009,-2.9016,0,0,0,0,0,0,0,0,0,0,0,0,0,-2.8741,-2.8747,-2.9013,-2.9014,-2.9015,-2.9087,-2.9088,-2.9089,-2.894,-2.8934,-2.8928,-2.8922,-2.9001,-2.9008,-2.9016,0,0,0,0,0,0,0,0,0,0,0,0,0,-2.8842,-2.8749,-2.9012,-2.8949,-2.8944,-2.9087,-2.9088,-2.909,-2.8941,-2.8933,-2.8926,-2.8919,-2.8998,-2.9008,-2.9018,-2.9227,0,0,-2.9048,-2.9052,0,0,0,0,0,0,0,0,-2.8837,-2.8852,-2.8957,-2.8953,-2.8948,-2.8996,-2.9021,-2.9136,-2.8943,-2.8942,-2.8924,-2.8916,-2.9007,-2.9015,-2.9046,-2.9231,-2.9234,-2.9049,-2.9055,-2.9059,-2.9062,0,0,0,0,0,0,0,-2.883,-2.8848,-2.9042,-2.8959,-2.8953,-2.8916,-2.8923,-2.9042,-2.9015,-2.8942,-2.8931,-2.8942,-2.9003,-2.9036,-2.9046,-2.9235,-2.9049,-2.9058,-2.9064,-2.9068,-2.9597,-2.9605,0,0,0,0,0,0,-2.8831,-2.8843,-2.904,-2.9044,-2.8873,-2.8927,-2.8934,-2.8988,-2.9013,-2.901,-2.8948,-2.8934,-2.9023,-2.9035,-2.9049,-2.9298,-2.9059,-2.9069,-2.9074,-2.9589,-2.9599,-2.9607,0,0,0,0,0,0,-2.8825,-2.885,-2.9037,-2.8941,-2.8962,-2.894,-2.9002,-2.8994,-2.9027,-2.9018,-2.9012,-2.8987,-2.9018,-2.9035,-2.9184,-2.9298,-2.9073,-2.9082,-2.958,-2.9592,-2.9603,-2.9796,0,0,0,0,0,0,-2.8818,-2.8849,-2.8928,-2.8944,-2.8968,-2.9172,-2.9009,-2.9,-2.9045,-2.9028,-2.9054,-2.9051,-2.9013,-2.917,-2.9194,-2.9308,-2.909,-2.9569,-2.9585,-2.9599,-2.978,-2.9813,-2.9842,0,0,0,0,0,-2.8809,-2.898,-2.8933,-2.8958,-2.9067,-2.9178,-2.9192,-2.9145,-2.9054,-2.9134,-2.9128,-2.905,-2.9281,-2.9186,-2.9212,-2.9331,-2.9562,-2.9581,-2.9598,-2.9766,-2.9807,-2.9842,0,0,0,0,0,0,-2.8979,-2.8981,-2.8929,-2.9109,-2.9145,-2.9153,-2.9252,-2.919,-2.9252,-2.9234,-2.9172,-2.9179,-2.9342,-2.935,-2.9245,-2.9535,-2.9406,-2.943,-2.9525,-2.9564,-2.9594,-2.9591,-2.9098,0,0,0,0,0,-2.9037,-2.9127,-2.9124,-2.9283,-2.9304,-2.9276,-2.9322,-2.9282,-2.9317,-2.9331,-2.9336,-2.9373,-2.9453,-2.9508,-2.9582,-2.9778,-2.9783,-2.9873,-2.9904,-2.993,-2.9953,-3.0059,-3.01,-2.9667,-2.9667,-2.9666,0,0,-2.9159,-2.9171,-2.9232,-2.9318,-2.9341,-2.9436,-2.9289,-2.9396,-2.9467,-2.9348,-2.949,-2.9495,-2.9531,-2.9706,-2.9783,-2.9718,-3.0072,-2.9953,-2.9974,-2.9983,-3.0082,-3.0123,-3.0159,-2.9679,-2.9677,-2.9675,0,0,-2.943,-2.9448,-2.9583,-2.9609,-2.9645,-2.9624,-2.9657,-2.9674,-2.9673,-2.9814,-2.9727,-2.9809,-2.9949,-2.998,-3.0014,-3.0295,-3.0227,-3.0321,-3.0486,-3.0591,-3.0625,-3.0655,-3.0758,-3.0795,-3.0343,-3.0343,-3.0343,0,-2.9578,-2.9718,-2.9661,-2.9775,-2.9816,-2.9711,-2.9849,-2.9876,-2.9935,-2.9966,-2.9891,-3.0065,-3.0083,-3.0264,-3.0333,-3.0362,-3.0399,-3.032,-3.0624,-3.0654,-3.0681,-3.0779,-3.0817,-3.0355,-3.0353,-3.0352,-3.0351,0,-2.9899,-2.9997,-3.0102,-3.0162,-3.0214,-3.0339,-3.0302,-3.0362,-3.0317,-3.0304,-3.045,-3.0466,-3.0542,-3.0581,-3.0538,-3.0757,-3.0716,-3.0634,-3.0504,-3.0735,-3.0826,-3.0862,-3.0371,-3.0367,-3.0364,-3.0361,0,0,-3.0283,-3.0308,-3.0348,-3.0374,-3.0405,-3.048,-3.06,-3.0674,-3.0727,-3.077,-3.0871,-3.0991,-3.0915,-3.0954,-3.0913,-3.1004,-3.1229,-3.0911,-3.0911,-3.0972,-3.1473,-3.1538,-3.1582,-3.1182,-3.1188,-3.1194,-3.1471,0,-3.0555,-3.0762,-3.0714,-3.0919,-3.101,-3.091,-3.1015,-3.1046,-3.1037,-3.1113,-3.1102,-3.119,-3.1082,-3.1105,-3.119,-3.1184,-3.133,-3.1162,-3.1277,-3.1282,-3.1275,-3.1629,-3.1697,-3.1959,-3.1506,-3.1512,-3.1516,0,-3.09,-3.0957,-3.1171,-3.1188,-3.1224,-3.1319,-3.1383,-3.1456,-3.1489,-3.1476,-3.1519,-3.146,-3.1579,-3.1445,-3.1609,-3.1497,-3.154,-3.1544,-3.1553,-3.1565,-3.1416,-3.1654,-3.2041,-3.2082,-3.1571,-3.1567,-3.1563,0,-3.1163,-3.1292,-3.1437,-3.1462,-3.1484,-3.1554,-3.1566,-3.1591,-3.1639,-3.1694,-3.1724,-3.1792,-3.1831,-3.1886,-3.1847,-3.1752,-3.2019,-3.1881,-3.2014,-3.2015,-3.2078,-3.2076,-3.2481,-3.21,-3.2099,-3.2099,-3.2098,0,-3.1474,-3.161,-3.1556,-3.1646,-3.1795,-3.1737,-3.1887,-3.1887,-3.1911,-3.1999,-3.1915,-3.2001,-3.1942,-3.2023,-3.1993,-3.2135,-3.2152,-3.2146,-3.2138,-3.2157,-3.2158,-3.2187,-3.2169,-3.2109,-3.2107,-3.2105,-3.2103,0,-3.1795,-3.1764,-3.1916,-3.1924,-3.1929,-3.2039,-3.2046,-3.213,-3.2113,-3.2227,-3.225,-3.2225,-3.2315,-3.2281,-3.2376,-3.2356,-3.2539,-3.2504,-3.2529,-3.2522,-3.2658,-3.2647,-3.3099,-3.3157,-3.2736,-3.274,-3.2743,0,-3.1998,-3.21,-3.2118,-3.2172,-3.219,-3.2277,-3.2324,-3.227,-3.2324,-3.2368,-3.2447,-3.253,-3.2593,-3.2742,-3.2733,-3.2806,-3.2775,-3.2928,-3.2786,-3.2802,-3.2781,-3.2777,-3.2788,-3.2958,-3.2963,-3.2967,-3.297,0,-3.2361,-3.2341,-3.2412,-3.248,-3.2539,-3.2589,-3.2632,-3.268,-3.2628,-3.2693,-3.2784,-3.2833,-3.293,-3.3014,-3.3079,-3.3092,-3.3025,-3.3014,-3.305,-3.3072,-3.3084,-3.3083,-3.2611,-3.3006,-3.3002,-3.2999,-3.2997,-3.2996,-3.2632,-3.2718,-3.2745,-3.2828,-3.2854,-3.2896,-3.2976,-3.2969,-3.3044,-3.3119,-3.3082,-3.3188,-3.3217,-3.3298,-3.332,-3.3402,-3.3343,-3.3393,-3.3407,-3.3421,-3.344,-3.3067,-3.3413,-3.3412,-3.3411,-3.341,-3.341,0,-3.2994,-3.3006,-3.3082,-3.3145,-3.3211,-3.3138,-3.3182,-3.3242,-3.3336,-3.3369,-3.3433,-3.3538,-3.3618,-3.3615,-3.3689,-3.3756,-3.3727,-3.3778,-3.3775,-3.3779,-3.3488,-3.3451,-3.3801,-3.3801,-3.38,-3.38,-3.38,-3.38,-3.3191,-3.3334,-3.3317,-3.3473,-3.3483,-3.3586,-3.3618,-3.3656,-3.3682,-3.3803,-3.387,-3.3866,-3.3884,-3.3959,-3.403,-3.4027,-3.406,-3.4124,-3.411,-3.3838,-3.38,-3.3763,-3.3729,-3.413,-3.4131,-3.4394,-3.4397,-3.4399]},{"header":{"parameterUnit":"m.s-1","parameterCategory":1,"la1":30.2991,"la2":30.254,"lo1":-89.0895,"lo2":-89.0444,"dy":0.0017,"dx":0.0017,"nx":28,"ny":28,"refTime":"2023-10-07T21:00:00:Z","depth":0,"parameterNumber":3,"parameterNumberName":"V-component_of_WINDS"},"data":[0,0,0,0,0,0,0,0,0,0,0,0,0,0,0,0,0,0,0,0,0,0,0,0,0,0,0,0,0,0,0,0,0,0,0,0,0,0,0,0,0,0,0,0,0,0,0,0,0,0,0,0,0,0,0,0,0,0,-5.4532,-5.4533,0,-5.4632,-5.4633,-5.4635,-5.4555,-5.4552,-5.4548,-5.4545,-5.4643,-5.4649,-5.4654,0,0,0,0,0,0,0,0,0,0,0,0,0,-5.4264,-5.4269,-5.4532,-5.4533,-5.4534,-5.4632,-5.4634,-5.4635,-5.4556,-5.4552,-5.4547,-5.4544,-5.4641,-5.4648,-5.4655,0,0,0,0,0,0,0,0,0,0,0,0,0,-5.4374,-5.4271,-5.4531,-5.4507,-5.4505,-5.4632,-5.4634,-5.4635,-5.4557,-5.4551,-5.4546,-5.4542,-5.4639,-5.4647,-5.4656,-5.4811,0,0,-5.4682,-5.4686,0,0,0,0,0,0,0,0,-5.4368,-5.4384,-5.4509,-5.4509,-5.4507,-5.4576,-5.4575,-5.4694,-5.4558,-5.4537,-5.4545,-5.4539,-5.4625,-5.4634,-5.4664,-5.4815,-5.4819,-5.4683,-5.4688,-5.4692,-5.4694,0,0,0,0,0,0,0,-5.436,-5.4379,-5.4571,-5.4511,-5.451,-5.4488,-5.4498,-5.4597,-5.4608,-5.4538,-5.4533,-5.4546,-5.4623,-5.4656,-5.4666,-5.4821,-5.4683,-5.469,-5.4696,-5.4699,-5.5101,-5.5106,0,0,0,0,0,0,-5.4356,-5.4373,-5.4568,-5.4574,-5.4424,-5.4497,-5.4508,-5.4559,-5.4607,-5.4609,-5.455,-5.4542,-5.4643,-5.4656,-5.4669,-5.4851,-5.4692,-5.47,-5.4705,-5.5095,-5.5102,-5.5108,0,0,0,0,0,0,-5.4351,-5.4374,-5.4564,-5.4472,-5.4495,-5.4507,-5.4565,-5.4564,-5.4596,-5.4616,-5.4616,-5.4582,-5.464,-5.4657,-5.4776,-5.4853,-5.4704,-5.4712,-5.5089,-5.5097,-5.5105,-5.5219,0,0,0,0,0,0,-5.4343,-5.4373,-5.4433,-5.4474,-5.45,-5.4672,-5.457,-5.4569,-5.4612,-5.4602,-5.4646,-5.4648,-5.4637,-5.4763,-5.4784,-5.4863,-5.4718,-5.5082,-5.5093,-5.5102,-5.5208,-5.523,-5.5248,0,0,0,0,0,-5.4334,-5.4461,-5.4437,-5.4461,-5.4577,-5.4676,-5.4691,-5.4677,-5.4619,-5.4679,-5.469,-5.4647,-5.4842,-5.4776,-5.4799,-5.4881,-5.5077,-5.509,-5.5102,-5.5199,-5.5225,-5.5248,0,0,0,0,0,0,-5.4427,-5.4466,-5.444,-5.4584,-5.4628,-5.4663,-5.4738,-5.4706,-5.4766,-5.4754,-5.4733,-5.4743,-5.4868,-5.4886,-5.4813,-5.5032,-5.495,-5.4967,-5.5016,-5.5041,-5.5061,-5.5053,-5.4726,0,0,0,0,0,-5.4465,-5.4545,-5.4573,-5.4698,-5.4721,-5.4726,-5.4769,-5.4755,-5.4798,-5.4816,-5.4837,-5.4879,-5.4949,-5.4996,-5.5062,-5.521,-5.5217,-5.5278,-5.5298,-5.5314,-5.533,-5.5407,-5.5433,-5.5148,-5.5148,-5.5148,0,0,-5.4543,-5.4574,-5.4625,-5.4717,-5.4749,-5.483,-5.4742,-5.4832,-5.4891,-5.4829,-5.4943,-5.4959,-5.5005,-5.5138,-5.5198,-5.5157,-5.541,-5.533,-5.5343,-5.5349,-5.5422,-5.5449,-5.5473,-5.5157,-5.5155,-5.5154,0,0,-5.4726,-5.4759,-5.4865,-5.4899,-5.4949,-5.4952,-5.4977,-5.5017,-5.5026,-5.514,-5.5095,-5.5163,-5.5286,-5.532,-5.5353,-5.5547,-5.5508,-5.5569,-5.5674,-5.575,-5.5772,-5.5792,-5.5859,-5.5884,-5.5584,-5.5585,-5.5585,0,-5.4817,-5.4939,-5.4923,-5.5017,-5.5057,-5.5006,-5.5112,-5.5145,-5.5213,-5.5241,-5.5195,-5.5347,-5.5374,-5.5513,-5.5561,-5.559,-5.5616,-5.5564,-5.5771,-5.579,-5.5808,-5.5872,-5.5898,-5.5591,-5.5591,-5.559,-5.5589,0,-5.5046,-5.5131,-5.5211,-5.5279,-5.5329,-5.5428,-5.5425,-5.5476,-5.5457,-5.5464,-5.5579,-5.561,-5.568,-5.5712,-5.5694,-5.5849,-5.5822,-5.5774,-5.569,-5.5843,-5.5902,-5.5927,-5.5601,-5.5599,-5.5597,-5.5595,0,0,-5.5292,-5.535,-5.5379,-5.5409,-5.546,-5.5524,-5.5619,-5.5689,-5.5733,-5.5781,-5.5859,-5.5963,-5.5918,-5.5956,-5.5941,-5.6008,-5.6157,-5.5951,-5.5951,-5.5987,-5.6326,-5.6362,-5.6391,-5.6132,-5.6136,-5.614,-5.6322,0,-5.5476,-5.5644,-5.5632,-5.579,-5.5866,-5.5818,-5.5901,-5.5939,-5.5947,-5.6012,-5.6019,-5.6093,-5.603,-5.6052,-5.6115,-5.6126,-5.6225,-5.6112,-5.6201,-5.6205,-5.6191,-5.6422,-5.646,-5.663,-5.6345,-5.6349,-5.6352,0,-5.5714,-5.5772,-5.5938,-5.5975,-5.6006,-5.6081,-5.6143,-5.6207,-5.6248,-5.6249,-5.6291,-5.6264,-5.6357,-5.6273,-5.6399,-5.6323,-5.6359,-5.6369,-5.6375,-5.6382,-5.6287,-5.6434,-5.6685,-5.671,-5.6389,-5.6386,-5.6384,0,-5.5875,-5.5993,-5.6107,-5.6134,-5.6181,-5.6234,-5.6256,-5.6293,-5.6335,-5.6389,-5.6416,-5.6479,-5.6514,-5.6562,-5.6552,-5.6492,-5.6681,-5.6596,-5.6682,-5.6683,-5.6724,-5.6721,-5.6983,-5.6749,-5.6749,-5.6748,-5.6748,0,-5.6081,-5.6184,-5.618,-5.625,-5.6362,-5.6346,-5.6457,-5.6472,-5.6506,-5.6575,-5.6537,-5.6603,-5.6587,-5.6652,-5.6644,-5.6749,-5.6765,-5.6767,-5.6763,-5.677,-5.677,-5.6792,-5.6779,-5.6755,-5.6753,-5.6752,-5.6751,0,-5.6279,-5.6281,-5.6402,-5.6436,-5.6447,-5.6528,-5.6556,-5.6621,-5.6625,-5.6715,-5.6734,-5.6741,-5.6815,-5.681,-5.6894,-5.6888,-5.7018,-5.7001,-5.7004,-5.7,-5.7086,-5.7078,-5.737,-5.7407,-5.7151,-5.7154,-5.7156,0,-5.6411,-5.6488,-5.6531,-5.6576,-5.6602,-5.6675,-5.6718,-5.6704,-5.675,-5.6802,-5.686,-5.6931,-5.6987,-5.7107,-5.7118,-5.7181,-5.7164,-5.7263,-5.7174,-5.7177,-5.7164,-5.7159,-5.7166,-5.728,-5.7283,-5.7285,-5.7287,0,-5.6643,-5.6639,-5.6704,-5.6769,-5.6821,-5.6871,-5.6917,-5.6955,-5.6946,-5.6999,-5.7075,-5.7118,-5.7204,-5.7274,-5.7333,-5.7353,-5.7318,-5.7315,-5.7338,-5.7345,-5.7343,-5.7343,-5.705,-5.7308,-5.7306,-5.7305,-5.7303,-5.7303,-5.681,-5.6876,-5.6917,-5.6989,-5.7022,-5.7065,-5.7127,-5.7139,-5.7203,-5.7272,-5.726,-5.7345,-5.7381,-5.7458,-5.7484,-5.7548,-5.7513,-5.7546,-5.7555,-5.7563,-5.7572,-5.7334,-5.7559,-5.7558,-5.7558,-5.7557,-5.7557,0,-5.7039,-5.7062,-5.7129,-5.7194,-5.725,-5.7214,-5.7262,-5.7311,-5.7387,-5.7425,-5.7481,-5.7567,-5.7634,-5.765,-5.7714,-5.7763,-5.7748,-5.778,-5.7775,-5.778,-5.7601,-5.7574,-5.779,-5.779,-5.779,-5.779,-5.779,-5.779,-5.7164,-5.7274,-5.7275,-5.7399,-5.7421,-5.7505,-5.7535,-5.7574,-5.7604,-5.7703,-5.7759,-5.7769,-5.7798,-5.7863,-5.7922,-5.7925,-5.7949,-5.7987,-5.7984,-5.7816,-5.7793,-5.777,-5.7745,-5.7993,-5.7994,-5.8157,-5.8158,-5.8159]}]]